Tillbaka till svenska Fidonet
English   Information   Debug  
FILM   0/18
FNEWS_PUBLISH   4926
FN_SYSOP   42201
FN_SYSOP_OLD1   71952
FTP_FIDO   0/2
FTSC_PUBLIC   0/13972
FUNNY   0/4886
GENEALOGY.EUR   0/71
GET_INFO   105
GOLDED   0/408
HAM   4856/16660
HOLYSMOKE   0/6791
HOT_SITES   0/1
HTMLEDIT   0/71
HUB203   466
HUB_100   264
HUB_400   39
HUMOR   0/29
IC   0/2851
INTERNET   0/424
INTERUSER   0/3
IP_CONNECT   719
JAMNNTPD   0/233
JAMTLAND   0/47
KATTY_KORNER   0/41
LAN   0/16
LINUX-USER   0/19
LINUXHELP   0/1155
LINUX   0/22300
LINUX_BBS   0/957
mail   18.68
mail_fore_ok   249
MENSA   0/341
MODERATOR   0/102
MONTE   0/992
MOSCOW_OKLAHOMA   0/1245
MUFFIN   0/783
MUSIC   0/321
N203_STAT   938
N203_SYSCHAT   313
NET203   321
NET204   69
NET_DEV   0/10
NORD.ADMIN   0/101
NORD.CHAT   0/2572
NORD.FIDONET   189
NORD.HARDWARE   0/28
NORD.KULTUR   0/114
NORD.PROG   0/32
NORD.SOFTWARE   0/88
NORD.TEKNIK   0/58
NORD   0/453
OCCULT_CHAT   0/93
OS2BBS   0/787
OS2DOSBBS   0/580
OS2HW   0/42
OS2INET   0/37
OS2LAN   0/134
OS2PROG   0/36
OS2REXX   0/113
OS2USER-L   207
OS2   0/4830
OSDEBATE   0/18996
PASCAL   0/490
PERL   0/457
PHP   0/45
POINTS   0/405
POLITICS   0/29554
POL_INC   0/14731
PSION   103
R20_ADMIN   1133
R20_AMATORRADIO   0/2
R20_BEST_OF_FIDONET   16
R20_CHAT   0/896
R20_DEPP   0/3
R20_DEV   400
R20_ECHO2   1830
R20_ECHOPRES   0/35
R20_ESTAT   0/719
R20_FIDONETPROG...
...RAM.MYPOINT
  0/2
R20_FIDONETPROGRAM   0/22
R20_FIDONET   0/248
R20_FILEFIND   0/24
R20_FILEFOUND   0/22
R20_HIFI   0/3
R20_INFO2   3723
R20_INTERNET   0/12940
R20_INTRESSE   0/60
R20_INTR_KOM   0/99
R20_KANDIDAT.CHAT   42
R20_KANDIDAT   28
R20_KOM_DEV   112
R20_KONTROLL   0/13360
R20_KORSET   0/18
R20_LOKALTRAFIK   0/24
R20_MODERATOR   0/1852
R20_NC   76
R20_NET200   245
R20_NETWORK.OTH...
...ERNETS
  0/13
R20_OPERATIVSYS...
...TEM.LINUX
  0/44
R20_PROGRAMVAROR   0/1
R20_REC2NEC   534
R20_SFOSM   0/341
R20_SF   0/108
R20_SPRAK.ENGLISH   0/1
R20_SQUISH   107
R20_TEST   2
R20_WORST_OF_FIDONET   20
RAR   0/9
RA_MULTI   106
RA_UTIL   0/162
REGCON.EUR   0/2068
REGCON   0/13
SCIENCE   0/1206
SF   0/239
SHAREWARE_SUPPORT   0/5146
SHAREWRE   0/14
SIMPSONS   0/169
STATS_OLD1   0/2539.065
STATS_OLD2   0/2530
STATS_OLD3   0/2395.095
STATS_OLD4   0/1692.25
SURVIVOR   0/495
SYSOPS_CORNER   0/3
SYSOP   0/84
TAGLINES   0/112
TEAMOS2   0/4530
TECH   0/2617
TEST.444   0/105
TRAPDOOR   0/19
TREK   0/755
TUB   0/290
UFO   0/40
UNIX   0/1316
USA_EURLINK   0/102
USR_MODEMS   0/1
VATICAN   0/2740
VIETNAM_VETS   0/14
VIRUS   0/378
VIRUS_INFO   0/201
VISUAL_BASIC   0/473
WHITEHOUSE   0/5187
WIN2000   0/101
WIN32   0/30
WIN95   0/4291
WIN95_OLD1   0/70272
WINDOWS   0/1517
WWB_SYSOP   0/419
WWB_TECH   0/810
ZCC-PUBLIC   0/1
ZEC   4

 
4DOS   0/134
ABORTION   0/7
ALASKA_CHAT   0/506
ALLFIX_FILE   0/1313
ALLFIX_FILE_OLD1   0/7997
ALT_DOS   0/152
AMATEUR_RADIO   0/1039
AMIGASALE   0/14
AMIGA   0/331
AMIGA_INT   0/1
AMIGA_PROG   0/20
AMIGA_SYSOP   0/26
ANIME   0/15
ARGUS   0/924
ASCII_ART   0/340
ASIAN_LINK   0/651
ASTRONOMY   0/417
AUDIO   0/92
AUTOMOBILE_RACING   0/105
BABYLON5   0/17862
BAG   135
BATPOWER   0/361
BBBS.ENGLISH   0/382
BBSLAW   0/109
BBS_ADS   0/5290
BBS_INTERNET   0/507
BIBLE   0/3563
BINKD   0/1119
BINKLEY   0/215
BLUEWAVE   0/2173
CABLE_MODEMS   0/25
CBM   0/46
CDRECORD   0/66
CDROM   0/20
CLASSIC_COMPUTER   0/378
COMICS   0/15
CONSPRCY   0/899
COOKING   41444
COOKING_OLD1   0/24719
COOKING_OLD2   0/40862
COOKING_OLD3   0/37489
COOKING_OLD4   0/35496
COOKING_OLD5   9370
C_ECHO   0/189
C_PLUSPLUS   0/31
DIRTY_DOZEN   0/201
DOORGAMES   0/2285
DOS_INTERNET   0/196
duplikat   6102
ECHOLIST   0/18295
EC_SUPPORT   0/318
ELECTRONICS   0/359
ELEKTRONIK.GER   1534
ENET.LINGUISTIC   0/13
ENET.POLITICS   0/4
ENET.SOFT   0/11701
ENET.SYSOP   34296
ENET.TALKS   0/32
ENGLISH_TUTOR   0/2000
EVOLUTION   0/1335
FDECHO   0/217
FDN_ANNOUNCE   0/7068
FIDONEWS   25062
FIDONEWS_OLD1   0/49742
FIDONEWS_OLD2   0/35949
FIDONEWS_OLD3   0/30874
FIDONEWS_OLD4   0/37224
FIDO_SYSOP   12922
FIDO_UTIL   0/180
FILEFIND   0/209
FILEGATE   0/212
Möte HAM, 16660 texter
 lista första sista föregående nästa
Text 2428, 802 rader
Skriven 2008-08-07 23:30:19 av Amsat List (1:323/120.0)
Ärende: [keps]  orb08220.amsa
=============================
[keps]  orb08220.amsa

Return-Path: <keps-bounces@amsat.org>
X-Rcpt: craig.healy@chowda.com
X-UIDL: 1218165218.2233

SB KEPS @ AMSAT  $ORB08220.O
Orbital Elements  08220.OSCAR

HR AMSAT ORBITAL ELEMENTS FOR OSCAR SATELLITES
FROM WA5QGD FORT WORTH,TX August 7, 2008
Send Subscribe/unsubscribe to KEPS at 
http://www.amsat.org/mailman/listinfo/keps
BID: ORB08220.O
TO ALL RADIO AMATEURS BT

Satellite: AO-07
Catalog number: 07530
Epoch time:      08219.65149021
Element set:    0246
Inclination:      101.4627 deg
RA of node:       249.4551 deg
Eccentricity:    0.0011933
Arg of perigee:   162.3089 deg
Mean anomaly:     197.8404 deg
Mean motion:   12.53573855 rev/day
Decay rate:       -2.7e-07 rev/day^2
Epoch rev:           54330
Checksum:              292

Satellite: AO-10
Catalog number: 14129
Epoch time:      08218.25999605
Element set:    0541
Inclination:      026.0156 deg
RA of node:       202.0853 deg
Eccentricity:    0.5971868
Arg of perigee:   146.0296 deg
Mean anomaly:     273.0677 deg
Mean motion:   02.05867875 rev/day
Decay rate:       -1.0e-08 rev/day^2
Epoch rev:           18911
Checksum:              318

Satellite: UO-11
Catalog number: 14781
Epoch time:      08219.90384498
Element set:    0739
Inclination:      098.1506 deg
RA of node:       254.6871 deg
Eccentricity:    0.0008065
Arg of perigee:   270.8770 deg
Mean anomaly:     089.1501 deg
Mean motion:   14.79656141 rev/day
Decay rate:      -1.51e-06 rev/day^2
Epoch rev:           31135
Checksum:              318

Satellite: RS-15
Catalog number: 23439
Epoch time:      08219.92281723
Element set:    0168
Inclination:      064.8154 deg
RA of node:       053.0042 deg
Eccentricity:    0.0147119
Arg of perigee:   113.0595 deg
Mean anomaly:     248.5917 deg
Mean motion:   11.27552735 rev/day
Decay rate:       -3.9e-07 rev/day^2
Epoch rev:           56068
Checksum:              308

Satellite: FO-29
Catalog number: 24278
Epoch time:      08219.92807608
Element set:    0848
Inclination:      098.5822 deg
RA of node:       129.5725 deg
Eccentricity:    0.0351363
Arg of perigee:   084.2436 deg
Mean anomaly:     279.8646 deg
Mean motion:   13.52938885 rev/day
Decay rate:       -8.0e-08 rev/day^2
Epoch rev:           59125
Checksum:              364

Satellite: SO-33
Catalog number: 25509
Epoch time:      08219.58775385
Element set:     258
Inclination:      031.4295 deg
RA of node:       031.3707 deg
Eccentricity:    0.0354301
Arg of perigee:   107.9422 deg
Mean anomaly:     256.0117 deg
Mean motion:   14.28218548 rev/day
Decay rate:       -1.4e-07 rev/day^2
Epoch rev:           51082
Checksum:              294

Satellite: AO-40
Catalog number: 26609
Epoch time:      08218.96565505
Element set:      99
Inclination:      007.6627 deg
RA of node:       068.1686 deg
Eccentricity:    0.7926541
Arg of perigee:   109.0958 deg
Mean anomaly:     344.1528 deg
Mean motion:   01.25584502 rev/day
Decay rate:      -2.72e-06 rev/day^2
Epoch rev:            3566
Checksum:              335

Satellite: VO-52
Catalog number: 28650
Epoch time:      08219.92716010
Element set:    0000
Inclination:      097.7860 deg
RA of node:       285.1373 deg
Eccentricity:    0.0026611
Arg of perigee:   337.7006 deg
Mean anomaly:     022.3020 deg
Mean motion:   14.81485986 rev/day
Decay rate:      -2.74e-06 rev/day^2
Epoch rev:           17611
Checksum:              285

Satellite: PO-63
Catalog number: 29712
Epoch time:      08220.26151763
Element set:     685
Inclination:      097.8718 deg
RA of node:       277.4822 deg
Eccentricity:    0.0013394
Arg of perigee:   212.2342 deg
Mean anomaly:     147.8057 deg
Mean motion:   14.80230259 rev/day
Decay rate:       3.22e-06 rev/day^2
Epoch rev:            8502
Checksum:              298

/EX
SB KEPS @ AMSAT  $ORB08220.D
Orbital Elements  08220.MICROS

HR AMSAT ORBITAL ELEMENTS FOR THE MICROSATS
FROM WA5QGD FORT WORTH,TX August 7, 2008
Send Subscribe/unsubscribe to KEPS at 
http://www.amsat.org/mailman/listinfo/keps
BID: ORB08220.D
TO ALL RADIO AMATEURS BT

Satellite: AO-16
Catalog number: 20439
Epoch time:      08219.59596828
Element set:     387
Inclination:      098.2336 deg
RA of node:       197.0913 deg
Eccentricity:    0.0011650
Arg of perigee:   030.9150 deg
Mean anomaly:     329.2715 deg
Mean motion:   14.31799634 rev/day
Decay rate:       -1.6e-07 rev/day^2
Epoch rev:           96813
Checksum:              329

Satellite: LO-19
Catalog number: 20442
Epoch time:      08219.91440483
Element set:    0314
Inclination:      098.2037 deg
RA of node:       205.7746 deg
Eccentricity:    0.0012455
Arg of perigee:   027.7978 deg
Mean anomaly:     332.3877 deg
Mean motion:   14.32037910 rev/day
Decay rate:        1.1e-07 rev/day^2
Epoch rev:           96833
Checksum:              305

Satellite: AO-27
Catalog number: 22825
Epoch time:      08219.60597773
Element set:      34
Inclination:      098.3878 deg
RA of node:       177.7464 deg
Eccentricity:    0.0009338
Arg of perigee:   110.5942 deg
Mean anomaly:     249.6238 deg
Mean motion:   14.29244485 rev/day
Decay rate:        6.0e-07 rev/day^2
Epoch rev:           77497
Checksum:              351

Satellite: IO-26
Catalog number: 22826
Epoch time:      08219.65125299
Element set:    0741
Inclination:      098.3801 deg
RA of node:       178.6767 deg
Eccentricity:    0.0009741
Arg of perigee:   105.3218 deg
Mean anomaly:     254.9036 deg
Mean motion:   14.29493114 rev/day
Decay rate:       -3.5e-07 rev/day^2
Epoch rev:           77507
Checksum:              324

